Location: Biltmore Gardens
(41.6070°N, 83.4666°W)
Time: 07:57:21
(UTC+00:00)

Vanguard 3 - Pass Details

Date: 20 April 2021
Orbit: 507 x 3262 km, 33.4° (Epoch: 17 May)

Event Time Altitude Azimuth Distance (km) Brightness Sun altitude
Exits shadow 10:09:20 - 242° (WSW) 1,776 8.2 -7.3°
Reaches altitude 10° 10:09:32 10° 239° (WSW) 1,711 8.2 -7.2°
Maximum altitude 10:12:20 20° 189° (S) 1,220 7.8 -6.7°
Drops below altitude 10° 10:15:24 10° 139° (SE) 1,888 9.3 -6.2°
Sets 10:18:25 0° 123° (ESE) 3,030 10.7 -5.7°
